This is the latest recevied weather packets stored in our database for station/object N0THY. If no packets are shown the sender has not sent any weather packets the latest 10 day(s).
| Time | Temp. | Humidity | Pressure | Rain* | Wind** | Luminosity | Snow |
|---|---|---|---|---|---|---|---|
| 1777569700 | 16.11° C | 33% | 1016.5 hPa | 0 mm | - | - | - |
| 1777568797 | 15.56° C | 36% | 1016.6 hPa | 0 mm | - | - | - |
| 1777567895 | 13.89° C | 40% | 1016.9 hPa | 0 mm | - | - | - |
| 1777566992 | 13.33° C | 43% | 1017.1 hPa | 0 mm | - | - | - |
| 1777566089 | 12.78° C | 47% | 1017.3 hPa | 0 mm | - | - | - |
| 1777565186 | 10.56° C | 54% | 1017.5 hPa | 0 mm | - | - | - |
| 1777564283 | 8.89° C | 56% | 1017.6 hPa | 0 mm | - | - | - |
| 1777563380 | 10° C | 55% | 1017.7 hPa | 0 mm | - | - | - |
| 1777562477 | 8.89° C | 63% | 1017.9 hPa | 0 mm | - | - | - |
| 1777561574 | 8.33° C | 62% | 1018.1 hPa | 0 mm | - | - | - |
| 1777560671 | 8.33° C | 62% | 1018.2 hPa | 0 mm | - | - | - |
| 1777558865 | 7.78° C | 64% | 1018.3 hPa | 0 mm | - | - | - |
| 1777557962 | 7.22° C | 68% | 1018.5 hPa | 0 mm | - | - | - |
| 1777557059 | 6.11° C | 71% | 1018.5 hPa | 0 mm | - | - | - |
| 1777556156 | 4.44° C | 76% | 1018.5 hPa | 0 mm | - | - | - |
| 1777555253 | 2.22° C | 80% | 1018.5 hPa | 0 mm | - | - | - |
| 1777554350 | 0.56° C | 83% | 1018.5 hPa | 0 mm | - | - | - |
| 1777553448 | 0.56° C | 84% | 1018.4 hPa | 0 mm | - | - | - |
| 1777552545 | 0.56° C | 83% | 1018.3 hPa | 0 mm | - | - | - |
| 1777551642 | 0.56° C | 81% | 1018.1 hPa | 0 mm | - | - | - |
| 1777550739 | 0.56° C | 81% | 1017.9 hPa | 0 mm | - | - | - |
| 1777549836 | 1.11° C | 81% | 1018 hPa | 0 mm | - | - | - |
| 1777548933 | 1.11° C | 80% | 1018 hPa | 1.02 mm | - | - | - |
| 1777548030 | 1.11° C | 79% | 1018 hPa | 1.02 mm | - | - | - |
| 1777547127 | 1.11° C | 78% | 1018 hPa | 1.02 mm | - | - | - |
* Rain since midnight (hover to see other rain measurements)
** Current wind speed in m/s (hover to see current wind gust speed)